Location: Newark
(22.3060°N, 114.2134°E)
Time: 03:03:41
(UTC+00:00)

Vanguard 2 - Pass Details

Date: 07 August 2021
Orbit: 553 x 2937 km, 32.9° (Epoch: 27 September)

Event Time Altitude Azimuth Distance (km) Brightness Sun altitude
Rises 04:22:24 0° 253° (WSW) 4,605 11.5 83.9°
Reaches altitude 10° 04:30:08 10° 214° (SW) 4,375 11.6 84.0°
Maximum altitude 04:31:34 10° 208° (SSW) 4,478 11.7 84.0°
Drops below altitude 10° 04:33:03 10° 201° (SSW) 4,625 11.7 84.0°
Sets 04:43:47 0° 166° (SSE) 6,363 12.3 83.1°
